TimeCST,TemperatureF,Dew PointF,Humidity,Sea Level PressureIn,VisibilityMPH,Wind Direction,Wind SpeedMPH,Gust SpeedMPH,PrecipitationIn,Events,Conditions,WindDirDegrees,DateUTC
12:54 AM,43.0,35.1,74,29.36,10.0,South,6.9,-,N/A,,Mostly Cloudy,170,2011-11-13 06:54:00
1:54 AM,44.6,37.4,76,29.36,10.0,South,9.2,-,N/A,,Mostly Cloudy,190,2011-11-13 07:54:00
2:54 AM,46.0,37.9,73,29.31,10.0,South,9.2,-,N/A,,Mostly Cloudy,180,2011-11-13 08:54:00
3:54 AM,46.0,37.9,73,29.27,10.0,SSE,9.2,-,N/A,,Overcast,160,2011-11-13 09:54:00
4:54 AM,48.9,39.0,69,29.29,10.0,South,4.6,-,N/A,,Overcast,180,2011-11-13 10:54:00
5:54 AM,48.9,41.0,74,29.25,10.0,South,6.9,-,N/A,,Overcast,190,2011-11-13 11:54:00
6:54 AM,48.9,41.0,74,29.24,10.0,SW,11.5,-,N/A,,Scattered Clouds,220,2011-11-13 12:54:00
7:54 AM,48.0,39.9,74,29.28,10.0,SW,9.2,-,N/A,,Scattered Clouds,220,2011-11-13 13:54:00
8:54 AM,51.1,39.0,63,29.31,10.0,WSW,15.0,-,N/A,,Mostly Cloudy,240,2011-11-13 14:54:00
9:54 AM,54.0,39.9,59,29.35,10.0,WSW,18.4,-,N/A,,Mostly Cloudy,250,2011-11-13 15:54:00
10:54 AM,53.1,34.0,48,29.36,10.0,West,23.0,32.2,N/A,,Overcast,260,2011-11-13 16:54:00
11:54 AM,53.1,30.0,41,29.39,10.0,West,27.6,34.5,N/A,,Overcast,260,2011-11-13 17:54:00
12:54 PM,53.1,30.9,43,29.41,10.0,WSW,20.7,27.6,N/A,,Overcast,250,2011-11-13 18:54:00
1:54 PM,55.0,30.9,40,29.43,10.0,WSW,19.6,25.3,N/A,,Mostly Cloudy,250,2011-11-13 19:54:00
2:54 PM,55.0,33.1,43,29.47,10.0,West,19.6,28.8,N/A,,Mostly Cloudy,260,2011-11-13 20:54:00
3:54 PM,53.1,34.0,48,29.49,10.0,WSW,17.3,-,N/A,,Mostly Cloudy,250,2011-11-13 21:54:00
4:54 PM,51.1,35.1,54,29.52,10.0,WSW,15.0,-,N/A,,Mostly Cloudy,250,2011-11-13 22:54:00
5:54 PM,48.0,34.0,58,29.56,10.0,West,9.2,-,N/A,,Clear,260,2011-11-13 23:54:00
6:54 PM,46.0,34.0,63,29.60,10.0,West,10.4,-,N/A,,Scattered Clouds,260,2011-11-14 00:54:00
7:54 PM,45.0,33.1,63,29.61,10.0,SW,8.1,-,N/A,,Scattered Clouds,230,2011-11-14 01:54:00
8:54 PM,43.0,33.1,68,29.62,10.0,SW,6.9,-,N/A,,Mostly Cloudy,230,2011-11-14 02:54:00
9:54 PM,44.1,33.1,65,29.62,10.0,West,3.5,-,N/A,,Mostly Cloudy,260,2011-11-14 03:54:00
10:54 PM,45.0,33.1,63,29.62,10.0,WSW,3.5,-,N/A,,Mostly Cloudy,250,2011-11-14 04:54:00
11:54 PM,42.1,33.1,70,29.61,10.0,South,6.9,-,N/A,,Overcast,180,2011-11-14 05:54:00